Location: Marcé
(47.5801°N, 0.3280°W)
Time: 14:45:03
(UTC+01:00)

Explorer 7 - Pass Details

Date: 06 December 2021
Orbit: 483 x 674 km, 50.3° (Epoch: 19 January)

Event Time Altitude Azimuth Distance (km) Brightness Sun altitude
Rises 09:39:52 0° 285° (WNW) 2,731 9.8 7.6°
Reaches altitude 10° 09:42:11 10° 288° (WNW) 1,803 9.0 7.9°
Maximum altitude 09:46:15 67° 11° (NNE) 566 6.9 8.4°
Drops below altitude 10° 09:50:05 10° 95° (E) 1,708 10.2 8.8°
Sets 09:52:14 0° 98° (E) 2,571 11.1 9.1°
